AirNav   Everest Fuels
 
 1074 users online  

VA33 Beaver Dam Airpark
Surry, Virginia, USA

GOING TO SURRY?


FAA INFORMATION EFFECTIVE 15 JULY 2021

Location

FAA Identifier: VA33
Lat/Long: 37-02-39.5400N 076-46-05.7000W
37-02.659000N 076-46.095000W
37.0443167,-76.7682500
(estimated)
Elevation: 100 ft. / 30 m (estimated)
Variation: 10W (2000)
From city: 14 miles S of SURRY, VA
Time zone: UTC -4 (UTC -5 during Standard Time)
Zip code: 23846

Airport Operations

Airport use: Private use. Permission required prior to landing
Activation date: 07/2002
Control tower: no
ARTCC: WASHINGTON CENTER
FSS: LEESBURG FLIGHT SERVICE STATION
Attendance: UNATNDD
Wind indicator: yes
Segmented circle: no

Airport Communications

WX ASOS at AKQ (12 nm W): 128.325 (757-899-2300)
WX AWOS-3 at JGG (12 nm N): 120.625 (757-220-8810)
WX ASOS at PHF (14 nm E): PHONE 757-874-3682
  • 122.85

Nearby radio navigation aids

VOR radial/distance  VOR name  Freq  Var
FKNr040/23.0FRANKLIN VORTAC110.6009W
HPWr142/23.8HOPEWELL VORTAC112.0006W
HCMr193/24.4HARCUM VORTAC108.8007W
ORFr296/28.7NORFOLK VORTAC116.9007W
RICr145/38.1RICHMOND VORTAC114.1009W

 
NDB name  Hdg/Dist  Freq  Var  ID
WAKEFIELD083/11.727411WAKQ .- -.- --.-

Airport Services

Fuel available: 100LL MOGAS
100LL:FOR FUEL SVC, CALL 757-636-0609.
Airframe service: MAJOR
Powerplant service: MAJOR

Runway Information

Runway 9/27

Dimensions: 2500 x 100 ft. / 762 x 30 m
Surface: turf
RUNWAY 9  RUNWAY 27
Traffic pattern: leftleft
Obstructions: 40 ft. trees, 1040 ft. from runwaynone

Airport Ownership and Management from official FAA records

Ownership: Privately-owned
Owner: BEAVER DAM AIRPARK ESTATES, LLC.
8229 BEECH LAND RD
ELBERON, VA 23846
Phone 757-636-0609
OWNER NAMES ARE C.A. NUCKLES, JR., PHILIP OLAH, ROBERT STRUNK.
Manager: C.A. NUKLES, JR.
8229 BEECH LAND RD
ELBERON, VA 23846
Phone 757-503-1811

Airport Operational Statistics

Aircraft based on the field: 11
Single engine airplanes: 8
Ultralights: 3
    

Additional Remarks

PILOT LOUNGE AND RESTROOM AVBL.
FOR CD CTC NORFOLK APCH AT 757-464-0757.

Instrument Procedures

There are no published instrument procedures at VA33.

Some nearby airports with instrument procedures:

KFAF - Felker Army Airfield (9 nm NE)
KAKQ - Wakefield Municipal Airport (12 nm W)
KJGG - Williamsburg-Jamestown Airport (12 nm N)
KPHF - Newport News/Williamsburg International Airport (14 nm E)
W94 - Camp Peary Landing Strip Airport (17 nm N)
KLFI - Langley Air Force Base (20 nm E)
 
Loc | Ops | Rwys | IFR | FBO | Links
Com | Nav | Svcs | Stats | Notes
Area around VA33 (Beaver Dam Airpark)
 
Road maps at: MapQuest Bing Google
 
Aerial photo
WARNING: Photo may not be current or correct
Aerial photo of VA33 (Beaver Dam Airpark)
Photo taken 01-May-2018
looking east.

Do you have a better or more recent aerial photo of Beaver Dam Airpark that you would like to share? If so, please send us your photo.

 
Sectional chart

 
Airport distance calculator
Flying to Beaver Dam Airpark? Find the distance to fly.

From to VA33

Sunrise and sunset
Times for 30-Jul-2021
 Local
(UTC-4)
 Zulu
(UTC)
Morning civil twilight05:4309:43
Sunrise06:1110:11
Sunset20:1500:15
Evening civil twilight20:4400:44

Current date and time
Zulu (UTC)  31-Jul-2021 00:30:31
Local (UTC-4)  30-Jul-2021 20:30:31
 
METAR
KFAF 
8nm NE 
302357Z 14004KT 10SM BKN100 27/24 A2986 RMK SLP115 60000 T02720236 10327 20272 51005 $
KAKQ 
12nm W 
302354Z AUTO 00000KT 10SM CLR 26/23 A2988 RMK AO2 LTG DSNT W SLP116 60000 T02560233 10350 20256 51010
KJGG 
12nm N 
310015Z AUTO 00000KT 10SM 28/24 A2990 RMK AO1
KPHF 
14nm NE 
302354Z AUTO 20004KT 8SM CLR 27/24 A2988 RMK AO2 SLP118 60000 T02670239 10328 20267 53008
KLFI 
19nm E 
302356Z 11004KT 9SM SCT070 28/25 A2989 RMK AO2A SLP128 T02770249 10323 20277 52008 $
TAF
KFAF 
8nm NE 
301800Z 3018/3124 35010KT 9999 SCT050 QNH2982INS TEMPO 3018/3101 33015G20KT 6000 -TSRA BKN030CB BECMG 3116/3117 06012KT 9999 BKN040 OVC070 QNH2995INS TX29/3020Z TN22/3107Z
KPHF 
14nm NE 
301958Z 3020/3118 05006KT P6SM VCSH SCT045 BKN060 TEMPO 3020/3021 4SM SHRA BR FM310000 03003KT P6SM SCT045 FM310500 04003KT P6SM BKN040 FM311300 05009KT P6SM SCT150
KLFI 
19nm E 
301700Z 3017/3123 35010KT 9999 SCT050 QNH2976INS TEMPO 3018/3101 33015G20KT 6000 -TSRA BKN030CB BECMG 3116/3117 06012KT 9999 BKN040 OVC070 QNH2998INS TX31/3018Z TN22/3109Z
NOTAMs
Click for the latest NOTAMs
NOTAMs are issued by the DoD/FAA and will open in a separate window not controlled by AirNav.

 

 
 

Would you like to see your business listed on this page?

 If your business provides an interesting product or service to pilots, flight crews, aircraft, or users of the Beaver Dam Airpark, you should consider listing it here.  To start the listing process, click on the button below
 
Add a business
 

Other Pages about Beaver Dam Airpark

Update a link
 
Copyright © AirNav, LLC. All rights reserved. Privacy Policy  Contact